Weather History for Graham, TX

Change the Weather History Date:

Monday, December 31, 2012

  Actual Average (KMWL) Record (KMWL)
Temperature  
Mean Temperature 48 °F -  
Max Temperature 60 °F 55 °F 78 °F (2011)
Min Temperature 35 °F 32 °F 21 °F (2013)
Degree Days  
Heating Degree Days 18    
Moisture  
Dew Point 39 °F    
Average Humidity 84    
Maximum Humidity 93    
Minimum Humidity 52    
Precipitation  
Precipitation 0.20 in - - ()
Sea Level Pressure  
Sea Level Pressure 30.01 in    
Wind  
Wind Speed 6 mph (ESE)    
Max Wind Speed 13 mph    
Max Gust Speed 18 mph    
Visibility 7 miles    
Events Rain    
Averages and records for this station are not official NWS values.
T = Trace of Precipitation, MM = Missing Value Source: NWS Daily Summary

Daily Weather History Graph

Daily Weather History Graph

Search for Another Location

Airport:

Trip Planner

Search our weather history database for the weather conditions in past years. The results will help you decide how hot, cold, wet, or windy it might be!

Date:

Astronomy

Dec. 31, 2012 Rise Set
Actual Time 7:37 AM CST 5:37 PM CST
Civil Twilight 7:10 AM CST 6:05 PM CST
Nautical Twilight 6:39 AM CST 6:36 PM CST
Astronomical Twilight 6:09 AM CST 7:06 PM CST
Moon 8:58 PM CST (12/31) 9:29 AM CST (12/31)
Length of Visible Light 10h 55m
Length of Day
10h 00m
Waning Gibbous, 90% of the Moon is Illuminated
Dec 31
Waning Gibbous
Jan 4
Last Quarter
Jan 11
New
Jan 18
First Quarter
Jan 26
Full

Hourly Weather History & Observations

Time (CST) Temp. Windchill Dew Point Humidity Pressure Visibility Wind Dir Wind Speed Gust Speed Precip Events Conditions
12:15 AM 35.6 °F 30.7 °F 32.0 °F 87% 30.14 in 10.0 mi ESE 5.8 mph - 0.01 in Rain Rain
12:35 AM 35.6 °F 30.7 °F 32.0 °F 87% 30.14 in 7.0 mi SE 5.8 mph - 0.02 in Rain Light Rain
12:55 AM 35.6 °F 29.9 °F 32.0 °F 87% 30.12 in 7.0 mi SE 6.9 mph - 0.03 in Rain Light Rain
1:15 AM 35.6 °F 29.2 °F 32.0 °F 87% 30.11 in 7.0 mi SE 8.1 mph 17.3 mph 0.01 in Rain Light Rain
1:35 AM 35.6 °F 29.9 °F 32.0 °F 87% 30.10 in 10.0 mi SE 6.9 mph - 0.02 in   Light Drizzle
1:55 AM 35.6 °F 30.7 °F 32.0 °F 87% 30.08 in 7.0 mi SE 5.8 mph - 0.02 in Rain Rain
2:15 AM 35.6 °F 29.9 °F 32.0 °F 87% 30.08 in 7.0 mi SE 6.9 mph - 0.01 in   Drizzle
2:35 AM 35.6 °F 29.9 °F 32.0 °F 87% 30.08 in 5.0 mi SE 6.9 mph - 0.02 in   Drizzle
2:55 AM 35.6 °F 29.2 °F 32.0 °F 87% 30.07 in 5.0 mi SE 8.1 mph - 0.03 in Rain Light Rain
3:15 AM 35.6 °F 29.2 °F 32.0 °F 87% 30.05 in 5.0 mi SE 8.1 mph - 0.02 in Rain Rain
3:35 AM 35.6 °F 29.9 °F 32.0 °F 87% 30.06 in 7.0 mi SSE 6.9 mph - 0.02 in Rain Light Rain
3:55 AM 35.6 °F 28.6 °F 33.8 °F 93% 30.03 in 7.0 mi SE 9.2 mph - 0.03 in   Light Drizzle
4:15 AM 35.6 °F 31.7 °F 33.8 °F 93% 30.03 in 4.0 mi SE 4.6 mph - 0.01 in Rain Light Rain
4:35 AM 37.4 °F 33.8 °F 33.8 °F 87% 30.04 in 5.0 mi SSE 4.6 mph - 0.02 in Rain Light Rain
4:55 AM 37.4 °F 33.8 °F 33.8 °F 87% 30.03 in 4.0 mi SE 4.6 mph - 0.03 in Rain Rain
5:15 AM 37.4 °F 31.4 °F 33.8 °F 87% 30.00 in 3.0 mi ESE 8.1 mph - 0.03 in Rain Rain
5:35 AM 37.4 °F 31.4 °F 33.8 °F 87% 29.97 in 4.0 mi ESE 8.1 mph - 0.05 in Rain Rain
5:55 AM 37.4 °F 29.3 °F 35.6 °F 93% 29.94 in 4.0 mi ESE 12.7 mph 18.4 mph 0.05 in Rain Light Rain
6:35 AM 39.2 °F 32.5 °F 35.6 °F 87% 30.00 in 5.0 mi West 10.4 mph - N/A Rain Light Rain
6:55 AM 39.2 °F 35.0 °F 35.6 °F 87% 30.02 in 4.0 mi West 5.8 mph - N/A   Light Drizzle
7:15 AM 39.2 °F - 35.6 °F 87% 30.01 in 4.0 mi Calm Calm - 0.01 in   Overcast
7:35 AM 39.2 °F - 35.6 °F 87% 30.01 in 3.0 mi Calm Calm - 0.01 in   Overcast
8:15 AM 39.2 °F - 37.4 °F 93% 30.02 in 3.0 mi Calm Calm - N/A   Overcast
8:35 AM 39.2 °F 37.0 °F 37.4 °F 93% 30.03 in 3.0 mi NNE 3.5 mph - N/A   Overcast
8:55 AM 39.2 °F 37.0 °F 37.4 °F 93% 30.03 in 3.0 mi NE 3.5 mph - N/A   Overcast
9:15 AM 41.0 °F 39.0 °F 37.4 °F 87% 30.03 in 2.0 mi ENE 3.5 mph - N/A   Overcast
9:35 AM 41.0 °F 38.0 °F 37.4 °F 87% 30.03 in 1.8 mi ENE 4.6 mph - N/A   Overcast
9:55 AM 41.0 °F 39.0 °F 37.4 °F 87% 30.04 in 1.5 mi East 3.5 mph - N/A   Overcast
10:15 AM 41.0 °F - 39.2 °F 93% 30.04 in 1.0 mi Calm Calm - N/A   Light Drizzle
10:35 AM 42.8 °F 41.1 °F 41.0 °F 93% 30.03 in 0.8 mi ESE 3.5 mph - N/A   Overcast
10:55 AM 42.8 °F 40.1 °F 41.0 °F 93% 30.03 in 1.5 mi SE 4.6 mph - N/A   Overcast
11:15 AM 44.6 °F 42.2 °F 41.0 °F 87% 30.03 in 2.5 mi SE 4.6 mph - N/A   Overcast
11:35 AM 44.6 °F 41.4 °F 42.8 °F 93% 30.02 in 3.0 mi SE 5.8 mph - N/A   Overcast
11:55 AM 46.4 °F 42.9 °F 42.8 °F 87% 30.00 in 5.0 mi SSE 6.9 mph - N/A   Overcast
12:15 PM 46.4 °F 42.4 °F 42.8 °F 87% 29.99 in 5.0 mi South 8.1 mph - N/A   Overcast
12:35 PM 46.4 °F 42.9 °F 42.8 °F 87% 29.98 in 5.0 mi SSE 6.9 mph - N/A   Overcast
12:55 PM 46.4 °F 42.9 °F 44.6 °F 93% 29.96 in 7.0 mi SSE 6.9 mph - N/A   Overcast
1:15 PM 50.0 °F - 44.6 °F 82% 29.96 in 10.0 mi SSE 6.9 mph - N/A   Overcast
1:35 PM 50.0 °F - 44.6 °F 82% 29.94 in 10.0 mi South 9.2 mph - N/A   Mostly Cloudy
1:55 PM 51.8 °F - 46.4 °F 82% 29.94 in 10.0 mi South 6.9 mph - N/A   Mostly Cloudy
2:15 PM 53.6 °F - 46.4 °F 77% 29.93 in 10.0 mi South 6.9 mph - N/A   Scattered Clouds
2:35 PM 55.4 °F - 46.4 °F 72% 29.93 in 10.0 mi SSW 6.9 mph - N/A   Clear
2:55 PM 55.4 °F - 44.6 °F 67% 29.93 in 10.0 mi SSW 5.8 mph - N/A   Clear
3:15 PM 59.0 °F - 44.6 °F 59% 29.92 in 10.0 mi South 6.9 mph - N/A   Clear
3:35 PM 57.2 °F - 44.6 °F 63% 29.92 in 10.0 mi SSW 5.8 mph - N/A   Clear
3:55 PM 59.0 °F - 44.6 °F 59% 29.93 in 10.0 mi South 3.5 mph - N/A   Clear
4:15 PM 60.8 °F - 44.6 °F 55% 29.93 in 10.0 mi South 4.6 mph - N/A   Clear
4:35 PM 60.8 °F - 42.8 °F 52% 29.93 in 10.0 mi SSW 5.8 mph - N/A   Clear
4:55 PM 55.4 °F - 46.4 °F 72% 29.93 in 10.0 mi ESE 6.9 mph - N/A   Clear
5:15 PM 53.6 °F - 46.4 °F 77% 29.93 in 10.0 mi ESE 5.8 mph - N/A   Clear
5:35 PM 51.8 °F - 46.4 °F 82% 29.94 in 10.0 mi ESE 4.6 mph - N/A   Clear
5:55 PM 51.8 °F - 46.4 °F 82% 29.94 in 10.0 mi Calm Calm - N/A   Clear
6:15 PM 50.0 °F - 46.4 °F 87% 29.95 in 7.0 mi East 3.5 mph - N/A   Clear
6:35 PM 48.2 °F - 44.6 °F 87% 29.95 in 7.0 mi NNE 3.5 mph - N/A   Clear
6:55 PM 48.2 °F - 44.6 °F 87% 29.97 in 5.0 mi North 4.6 mph - N/A   Scattered Clouds
7:15 PM 48.2 °F - 46.4 °F 93% 29.98 in 5.0 mi North 9.2 mph - N/A   Mostly Cloudy
7:35 PM 46.4 °F 41.5 °F 44.6 °F 93% 29.99 in 7.0 mi NNE 10.4 mph 16.1 mph N/A   Overcast
7:55 PM 44.6 °F 39.7 °F 42.8 °F 93% 30.00 in 3.0 mi NNE 9.2 mph - N/A   Overcast
8:35 PM 46.4 °F 43.5 °F 42.8 °F 87% 30.01 in 7.0 mi NNE 5.8 mph - N/A   Overcast
8:55 PM 46.4 °F 42.9 °F 41.0 °F 81% 30.02 in 7.0 mi North 6.9 mph - N/A   Overcast
9:35 PM 44.6 °F 40.7 °F 39.2 °F 81% 30.03 in 10.0 mi North 6.9 mph - N/A   Mostly Cloudy
9:55 PM 44.6 °F 41.4 °F 39.2 °F 81% 30.04 in 10.0 mi NNE 5.8 mph - N/A   Mostly Cloudy
10:15 PM 44.6 °F 41.4 °F 39.2 °F 81% 30.05 in 10.0 mi NNE 5.8 mph - N/A   Overcast
10:35 PM 44.6 °F 42.2 °F 39.2 °F 81% 30.05 in 10.0 mi NNE 4.6 mph - N/A   Overcast
10:55 PM 44.6 °F 42.2 °F 39.2 °F 81% 30.06 in 10.0 mi NNE 4.6 mph - N/A   Overcast
11:15 PM 44.6 °F 41.4 °F 37.4 °F 76% 30.06 in 10.0 mi NNE 5.8 mph - N/A   Overcast
11:35 PM 44.6 °F 43.1 °F 37.4 °F 76% 30.06 in 10.0 mi NNE 3.5 mph - N/A   Overcast
11:55 PM 42.8 °F 37.5 °F 37.4 °F 81% 30.06 in 10.0 mi North 9.2 mph - N/A   Overcast